Tracking 19489 objects as of 22-Jan-2019
HD Live streaming from Space Station
objects crossing your sky now

FENGYUN 1C DEB

Track FENGYUN 1C DEB now!
10-day predictions


NORAD ID: 31773
Int'l Code: 1999-025CFY
Perigee: 723.5 km
Apogee: 827.3 km
Inclination: 99.0 °
Period: 100.2 minutes
Semi major axis: 7146 km
RCS: 0.0025 m2 (small)
Launch date: May 10, 1999
Source: People's Republic of China (PRC)
Launch site: Taiyaun Space Center, China (TSC)

Note: This is SATELLITE DEBRIS
aabbcc
Your satellite tracking list
Your tracking list is empty




NASA's NSSDC Master Catalog

Two Line Element Set (TLE):
1 31773U 99025CFY 19019.72718325 +.00000442 +00000-0 +16013-3 0  9995
2 31773 099.0067 206.0529 0072624 126.2872 234.5049 14.37063989287988
Source of the keplerian elements: AFSPC